Location: ????????
(41.2031°N, 22.5756°E)
Time: 15:36:02
(UTC+00:00)

Cosmos 2181 Rocket - Pass Details

Date: 01 December 2020
Orbit: 951 x 1015 km, 82.9° (Epoch: 20 January)

Event Time Altitude Azimuth Distance (km) Brightness Sun altitude
Rises 15:52:41 0° 185° (S) 3,734 7.4 -9.6°
Reaches altitude 10° 15:55:13 10° 185° (S) 2,783 6.7 -10.0°
Maximum altitude 16:01:39 90° 139° (SE) 1,010 4.1 -11.1°
Drops below altitude 10° 16:08:02 10° 7° (N) 2,767 6.1 -12.3°
Sets 16:10:33 0° 8° (N) 3,710 6.8 -12.7°
